| time (UTC) | temp F | wind direction | speed MPH | gust MPH | rain 1hr in | rain 24hr in | rain mn in | humidity % | barometer mb |
| 20260906075347 | 81 | 237 | 4.0 | 6.0 | 0.00 | 0.00 | 0.00 | 47 | 1023.0 |
| 20260906074343 | 81 | 184 | 4.0 | 7.0 | 0.00 | 0.00 | 0.00 | 46 | 1023.1 |
| 20260906073339 | 81 | 189 | 3.0 | 7.0 | 0.00 | 0.00 | 0.00 | 45 | 1023.1 |
| 20260906072331 | 82 | 181 | 5.0 | 6.0 | 0.00 | 0.00 | 0.00 | 45 | 1023.1 |
| 20260906071342 | 82 | 170 | 4.0 | 6.0 | 0.00 | 0.00 | 0.00 | 45 | 1023.2 |
| 20260906070415 | 81 | 166 | 3.0 | 6.0 | 0.00 | 0.00 | 0.00 | 45 | 1023.3 |
| 20260906065335 | 82 | 171 | 4.0 | 7.0 | 0.00 | 0.00 | 0.00 | 44 | 1023.3 |
| 20260906064347 | 83 | 181 | 4.0 | 7.0 | 0.00 | 0.00 | 0.00 | 43 | 1023.2 |
| 20260906063341 | 83 | 194 | 6.0 | 9.0 | 0.00 | 0.00 | 0.00 | 42 | 1023.2 |
| 20260906062355 | 83 | 193 | 7.0 | 9.0 | 0.00 | 0.00 | 0.00 | 42 | 1023.2 |
| 20260906061335 | 83 | 197 | 6.0 | 8.0 | 0.00 | 0.00 | 0.00 | 43 | 1023.3 |
| 20260906060348 | 83 | 188 | 5.0 | 9.0 | 0.00 | 0.00 | 0.00 | 42 | 1023.4 |
| 20260906055401 | 84 | 188 | 5.0 | 8.0 | 0.00 | 0.00 | 0.00 | 40 | 1023.3 |
| 20260906054333 | 85 | 199 | 6.0 | 8.0 | 0.00 | 0.00 | 0.00 | 39 | 1023.3 |
| 20260906053347 | 85 | 188 | 5.0 | 8.0 | 0.00 | 0.00 | 0.00 | 39 | 1023.4 |
| 20260906052400 | 85 | 184 | 5.0 | 6.0 | 0.00 | 0.00 | 0.00 | 39 | 1023.3 |
| 20260906051333 | 85 | 176 | 3.0 | 6.0 | 0.00 | 0.00 | 0.00 | 39 | 1023.4 |
| 20260906050411 | 85 | 178 | 4.0 | 5.0 | 0.00 | 0.00 | 0.00 | 38 | 1023.5 |
| 20260906045403 | 86 | 183 | 3.0 | 4.0 | 0.00 | 0.00 | 0.00 | 38 | 1023.4 |
| 20260906044337 | 86 | 160 | 4.0 | 6.0 | 0.00 | 0.00 | 0.00 | 38 | 1023.5 |
| 20260906043331 | 85 | 171 | 3.0 | 4.0 | 0.00 | 0.00 | 0.00 | 38 | 1023.5 |
| 20260906042344 | 86 | 223 | 2.0 | 3.0 | 0.00 | 0.00 | 0.00 | 38 | 1023.5 |
| 20260906041359 | 86 | 223 | 3.0 | 4.0 | 0.00 | 0.00 | 0.00 | 38 | 1023.4 |
| 20260906040330 | 86 | 238 | 1.0 | 4.0 | 0.00 | 0.00 | 0.00 | 37 | 1023.6 |
| 20260906035343 | 86 | 279 | 3.0 | 5.0 | 0.00 | 0.00 | 0.00 | 37 | 1023.5 |
| 20260906034358 | 86 | 258 | 2.0 | 4.0 | 0.00 | 0.00 | 0.00 | 36 | 1023.5 |
| 20260906033329 | 87 | 258 | 2.0 | 6.0 | 0.00 | 0.00 | 0.00 | 36 | 1023.2 |
| 20260906032409 | 87 | 298 | 2.0 | 5.0 | 0.00 | 0.00 | 0.00 | 38 | 1023.2 |
| 20260906031402 | 87 | 281 | 2.0 | 5.0 | 0.00 | 0.00 | 0.00 | 35 | 1023.0 |
| 20260906030333 | 88 | 285 | 3.0 | 7.0 | 0.00 | 0.00 | 0.00 | 34 | 1022.9 |
| 20260906025345 | 88 | 295 | 3.0 | 9.0 | 0.00 | 0.00 | 0.00 | 34 | 1022.8 |
| 20260906024340 | 88 | 313 | 5.0 | 12.0 | 0.00 | 0.00 | 0.00 | 33 | 1022.7 |
| 20260906023339 | 89 | 312 | 7.0 | 11.0 | 0.00 | 0.00 | 0.00 | 33 | 1022.6 |
| 20260906022352 | 89 | 293 | 8.0 | 13.0 | 0.00 | 0.00 | 0.00 | 33 | 1022.4 |
| 20260906021343 | 89 | 314 | 11.0 | 15.0 | 0.00 | 0.00 | 0.00 | 33 | 1022.4 |
| 20260906020334 | 89 | 300 | 8.0 | 14.0 | 0.00 | 0.00 | 0.00 | 32 | 1022.3 |
| 20260906015347 | 90 | 311 | 9.0 | 16.0 | 0.00 | 0.00 | 0.00 | 32 | 1022.3 |
| 20260906014340 | 90 | 302 | 8.0 | 16.0 | 0.00 | 0.00 | 0.00 | 32 | 1022.3 |
| 20260906013334 | 90 | 306 | 11.0 | 17.0 | 0.00 | 0.00 | 0.00 | 32 | 1022.2 |
| 20260906012347 | 90 | 300 | 10.0 | 18.0 | 0.00 | 0.00 | 0.00 | 31 | 1022.0 |
| 20260906011342 | 91 | 306 | 8.0 | 16.0 | 0.00 | 0.00 | 0.00 | 31 | 1022.2 |
| 20260906010354 | 91 | 306 | 12.0 | 17.0 | 0.00 | 0.00 | 0.00 | 30 | 1022.0 |
| 20260906005348 | 92 | 295 | 8.0 | 15.0 | 0.00 | 0.00 | 0.00 | 30 | 1022.0 |
| 20260906004403 | 92 | 269 | 10.0 | 18.0 | 0.00 | 0.00 | 0.00 | 31 | 1022.0 |
| 20260906003336 | 93 | 234 | 9.0 | 17.0 | 0.00 | 0.00 | 0.00 | 31 | 1022.1 |
| 20260906002349 | 93 | 306 | 8.0 | 17.0 | 0.00 | 0.00 | 0.00 | 30 | 1022.0 |
| 20260906001344 | 93 | 289 | 11.0 | 18.0 | 0.00 | 0.00 | 0.00 | 30 | 1022.1 |
| 20260906000334 | 93 | 300 | 9.0 | 17.0 | 0.00 | 0.00 | 0.00 | 30 | 1022.0 |
| 20260905235346 | 93 | 276 | 8.0 | 18.0 | 0.00 | 0.00 | 0.00 | 29 | 1021.9 |
| 20260905234409 | 94 | 284 | 8.0 | 16.0 | 0.00 | 0.00 | 0.00 | 29 | 1022.0 |
| 20260905233343 | 94 | 290 | 10.0 | 17.0 | 0.00 | 0.00 | 0.00 | 29 | 1021.9 |
| 20260905232339 | 94 | 294 | 9.0 | 15.0 | 0.00 | 0.00 | 0.00 | 29 | 1021.9 |
| 20260905231338 | 94 | 304 | 11.0 | 17.0 | 0.00 | 0.00 | 0.00 | 29 | 1022.0 |
| 20260905230331 | 95 | 262 | 7.0 | 16.0 | 0.00 | 0.00 | 0.00 | 28 | 1022.0 |
| 20260905225331 | 95 | 5 | 8.0 | 17.0 | 0.00 | 0.00 | 0.00 | 28 | 1022.1 |
| 20260905224356 | 94 | 286 | 4.0 | 18.0 | 0.00 | 0.00 | 0.00 | 28 | 1022.1 |
| 20260905223333 | 94 | 259 | 7.0 | 17.0 | 0.00 | 0.00 | 0.00 | 29 | 1022.1 |
| 20260905222331 | 95 | 273 | 9.0 | 15.0 | 0.00 | 0.00 | 0.00 | 28 | 1022.4 |
| 20260905221329 | 95 | 300 | 10.0 | 18.0 | 0.00 | 0.00 | 0.00 | 29 | 1022.4 |
| 20260905220338 | 94 | 321 | 3.0 | 18.0 | 0.00 | 0.00 | 0.00 | 29 | 1022.6 |
| 20260905215333 | 96 | 264 | 11.0 | 19.0 | 0.00 | 0.00 | 0.00 | 27 | 1022.7 |
| 20260905214329 | 96 | 288 | 10.0 | 15.0 | 0.00 | 0.00 | 0.00 | 27 | 1022.9 |
| 20260905213348 | 96 | 186 | 5.0 | 12.0 | 0.00 | 0.00 | 0.00 | 26 | 1023.0 |
| 20260905212341 | 95 | 242 | 5.0 | 11.0 | 0.00 | 0.00 | 0.00 | 27 | 1023.1 |
| 20260905211401 | 95 | 341 | 5.0 | 11.0 | 0.00 | 0.00 | 0.00 | 27 | 1023.4 |
| 20260905210331 | 95 | 231 | 1.0 | 15.0 | 0.00 | 0.00 | 0.00 | 28 | 1023.5 |
| 20260905205353 | 95 | 257 | 6.0 | 14.0 | 0.00 | 0.00 | 0.00 | 27 | 1023.8 |
| 20260905204346 | 93 | 290 | 1.0 | 12.0 | 0.00 | 0.00 | 0.00 | 30 | 1023.9 |
| 20260905203336 | 95 | 304 | 5.0 | 12.0 | 0.00 | 0.00 | 0.00 | 29 | 1023.9 |
| 20260905202353 | 95 | 271 | 8.0 | 14.0 | 0.00 | 0.00 | 0.00 | 29 | 1024.0 |
| 20260905201329 | 94 | 222 | 3.0 | 11.0 | 0.00 | 0.00 | 0.00 | 30 | 1024.3 |
| 20260905200342 | 93 | 250 | 3.0 | 14.0 | 0.00 | 0.00 | 0.00 | 30 | 1024.4 |
| 20260905195337 | 94 | 300 | 7.0 | 17.0 | 0.00 | 0.00 | 0.00 | 31 | 1024.5 |
| 20260905194330 | 93 | 246 | 8.0 | 14.0 | 0.00 | 0.00 | 0.00 | 31 | 1024.6 |
| 20260905193329 | 93 | 265 | 6.0 | 15.0 | 0.00 | 0.00 | 0.00 | 32 | 1024.8 |
| 20260905192402 | 91 | 284 | 7.0 | 12.0 | 0.00 | 0.00 | 0.00 | 34 | 1024.8 |
| 20260905191403 | 92 | 316 | 5.0 | 13.0 | 0.00 | 0.00 | 0.00 | 33 | 1025.0 |
| 20260905190333 | 92 | 277 | 3.0 | 10.0 | 0.00 | 0.00 | 0.00 | 33 | 1025.1 |
| 20260905185352 | 91 | 288 | 4.0 | 9.0 | 0.00 | 0.00 | 0.00 | 33 | 1025.3 |
| 20260905184345 | 90 | 294 | 6.0 | 10.0 | 0.00 | 0.00 | 0.00 | 34 | 1025.4 |
| 20260905183339 | 91 | 248 | 5.0 | 12.0 | 0.00 | 0.00 | 0.00 | 34 | 1025.6 |
| 20260905182333 | 91 | 306 | 4.0 | 11.0 | 0.00 | 0.00 | 0.00 | 35 | 1025.7 |
| 20260905181355 | 90 | 288 | 5.0 | 9.0 | 0.00 | 0.00 | 0.00 | 36 | 1025.8 |
| 20260905180344 | 91 | 252 | 7.0 | 10.0 | 0.00 | 0.00 | 0.00 | 36 | 1025.8 |
| 20260905175336 | 89 | 241 | 4.0 | 10.0 | 0.00 | 0.00 | 0.00 | 38 | 1025.7 |
| 20260905174334 | 90 | 345 | 8.0 | 13.0 | 0.00 | 0.00 | 0.00 | 37 | 1025.8 |
| 20260905173349 | 90 | 333 | 3.0 | 9.0 | 0.00 | 0.00 | 0.00 | 36 | 1025.8 |
| 20260905172346 | 89 | 254 | 2.0 | 6.0 | 0.00 | 0.00 | 0.00 | 38 | 1025.8 |
| 20260905171341 | 88 | 286 | 6.0 | 10.0 | 0.00 | 0.00 | 0.00 | 41 | 1025.9 |
| 20260905170333 | 88 | 249 | 2.0 | 6.0 | 0.00 | 0.00 | 0.00 | 41 | 1025.9 |
| 20260905165412 | 87 | 249 | 2.0 | 5.0 | 0.00 | 0.00 | 0.00 | 43 | 1025.9 |
| 20260905164346 | 87 | 315 | 4.0 | 5.0 | 0.00 | 0.00 | 0.00 | 43 | 1026.1 |
| 20260905163340 | 87 | 270 | 4.0 | 7.0 | 0.00 | 0.00 | 0.00 | 43 | 1026.0 |
| 20260905162358 | 86 | 238 | 1.0 | 6.0 | 0.00 | 0.00 | 0.00 | 44 | 1026.1 |
| 20260905161332 | 86 | 293 | 1.0 | 6.0 | 0.00 | 0.00 | 0.00 | 44 | 1026.1 |
| 20260905160343 | 86 | 53 | 3.0 | 5.0 | 0.00 | 0.00 | 0.00 | 44 | 1026.1 |
| 20260905155337 | 85 | 221 | 1.0 | 4.0 | 0.00 | 0.00 | 0.00 | 47 | 1026.1 |
| 20260905154332 | 85 | 183 | 1.0 | 3.0 | 0.00 | 0.00 | 0.00 | 46 | 1026.1 |
| 20260905153413 | 84 | 236 | 1.0 | 4.0 | 0.00 | 0.00 | 0.00 | 48 | 1026.1 |
| 20260905152345 | 83 | 349 | 0.0 | 3.0 | 0.00 | 0.00 | 0.00 | 51 | 1026.1 |
| 20260905151339 | 82 | 355 | 0.0 | 4.0 | 0.00 | 0.00 | 0.00 | 52 | 1026.0 |
| 20260905150330 | 82 | 20 | 2.0 | 4.0 | 0.00 | 0.00 | 0.00 | 52 | 1025.9 |
| 20260905145348 | 80 | 221 | 1.0 | 2.0 | 0.00 | 0.00 | 0.00 | 56 | 1026.1 |
| 20260905144343 | 78 | 221 | 0.0 | 2.0 | 0.00 | 0.00 | 0.00 | 60 | 1026.1 |
| 20260905143403 | 77 | 221 | 1.0 | 3.0 | 0.00 | 0.00 | 0.00 | 65 | 1026.0 |
| 20260905142333 | 75 | 221 | 1.0 | 3.0 | 0.00 | 0.00 | 0.00 | 69 | 1025.9 |
| 20260905141329 | 75 | 221 | 1.0 | 3.0 | 0.00 | 0.00 | 0.00 | 70 | 1025.8 |
| 20260905140340 | 74 | 221 | 4.0 | 6.0 | 0.00 | 0.00 | 0.00 | 70 | 1025.7 |
| 20260905135334 | 74 | 198 | 3.0 | 5.0 | 0.00 | 0.00 | 0.00 | 70 | 1025.7 |
| 20260905134331 | 74 | 157 | 2.0 | 5.0 | 0.00 | 0.00 | 0.00 | 69 | 1025.5 |
| 20260905133352 | 74 | 157 | 3.0 | 3.0 | 0.00 | 0.00 | 0.00 | 68 | 1025.3 |
| 20260905132344 | 75 | 119 | 1.0 | 1.0 | 0.00 | 0.00 | 0.00 | 65 | 1025.2 |
| 20260905131339 | 75 | 119 | 1.0 | 2.0 | 0.00 | 0.00 | 0.00 | 64 | 1024.9 |
| 20260905130331 | 76 | 119 | 1.0 | 2.0 | 0.00 | 0.00 | 0.00 | 63 | 1024.7 |
| 20260905125344 | 76 | 119 | 1.0 | 2.0 | 0.00 | 0.00 | 0.00 | 63 | 1024.8 |
| 20260905124340 | 76 | 119 | 0.0 | 0.0 | 0.00 | 0.00 | 0.00 | 63 | 1024.7 |
| 20260905123333 | 76 | 119 | 0.0 | 0.0 | 0.00 | 0.00 | 0.00 | 63 | 1024.6 |
| 20260905122352 | 76 | 119 | 0.0 | 1.0 | 0.00 | 0.00 | 0.00 | 63 | 1024.6 |
| 20260905121345 | 77 | 119 | 0.0 | 1.0 | 0.00 | 0.00 | 0.00 | 62 | 1024.6 |
| 20260905120357 | 77 | 119 | 1.0 | 2.0 | 0.00 | 0.00 | 0.00 | 63 | 1024.6 |
| 20260905115329 | 76 | 119 | 1.0 | 2.0 | 0.00 | 0.00 | 0.00 | 63 | 1024.5 |
| 20260905114351 | 76 | 119 | 0.0 | 1.0 | 0.00 | 0.00 | 0.00 | 64 | 1024.4 |
| 20260905113345 | 76 | 119 | 1.0 | 1.0 | 0.00 | 0.00 | 0.00 | 65 | 1024.5 |
| 20260905112337 | 76 | 119 | 0.0 | 0.0 | 0.00 | 0.00 | 0.00 | 65 | 1024.5 |
| 20260905111331 | 76 | 119 | 1.0 | 3.0 | 0.00 | 0.00 | 0.00 | 64 | 1024.5 |
| 20260905110342 | 76 | 119 | 3.0 | 4.0 | 0.00 | 0.00 | 0.00 | 65 | 1024.6 |
| 20260905105335 | 75 | 119 | 2.0 | 3.0 | 0.00 | 0.00 | 0.00 | 67 | 1024.6 |
| 20260905104330 | 76 | 119 | 3.0 | 3.0 | 0.00 | 0.00 | 0.00 | 65 | 1024.5 |
| 20260905103408 | 76 | 119 | 2.0 | 3.0 | 0.00 | 0.00 | 0.00 | 64 | 1024.4 |
| 20260905102405 | 76 | 119 | 2.0 | 6.0 | 0.00 | 0.00 | 0.00 | 64 | 1024.5 |
| 20260905101339 | 77 | 85 | 3.0 | 6.0 | 0.00 | 0.00 | 0.00 | 62 | 1024.5 |
| 20260905100333 | 78 | 183 | 3.0 | 8.0 | 0.00 | 0.00 | 0.00 | 62 | 1024.4 |
| 20260905095348 | 78 | 188 | 5.0 | 9.0 | 0.00 | 0.00 | 0.00 | 62 | 1024.6 |
| 20260905094346 | 77 | 184 | 6.0 | 8.0 | 0.00 | 0.00 | 0.00 | 63 | 1024.5 |
| 20260905093343 | 77 | 200 | 5.0 | 7.0 | 0.00 | 0.00 | 0.00 | 63 | 1024.6 |
| 20260905092344 | 77 | 157 | 5.0 | 8.0 | 0.00 | 0.00 | 0.00 | 64 | 1024.6 |
| 20260905091343 | 77 | 186 | 5.0 | 7.0 | 0.00 | 0.00 | 0.00 | 65 | 1024.6 |
| 20260905090337 | 77 | 174 | 5.0 | 7.0 | 0.00 | 0.00 | 0.00 | 65 | 1024.6 |
| 20260905085333 | 77 | 165 | 4.0 | 8.0 | 0.00 | 0.00 | 0.00 | 65 | 1024.7 |
| 20260905084329 | 76 | 175 | 4.0 | 7.0 | 0.00 | 0.00 | 0.00 | 67 | 1024.7 |
| 20260905083412 | 77 | 175 | 3.0 | 6.0 | 0.00 | 0.00 | 0.00 | 66 | 1024.7 |
| 20260905082344 | 77 | 179 | 4.0 | 5.0 | 0.00 | 0.00 | 0.00 | 65 | 1024.7 |
| 20260905081342 | 77 | 209 | 3.0 | 5.0 | 0.00 | 0.00 | 0.00 | 64 | 1024.8 |
| 20260905080335 | 77 | 209 | 3.0 | 4.0 | 0.00 | 0.00 | 0.00 | 64 | 1024.9 |